[[{"header":{"parameterUnit":"m.s-1","parameterCategory":1,"la1":30.2991,"la2":30.254,"lo1":-89.0895,"lo2":-89.0444,"dy":0.0017,"dx":0.0017,"nx":28,"ny":28,"refTime":"2025-09-12T09:00:00:Z","depth":0,"parameterNumber":2,"parameterNumberName":"U-component_of_WINDS"},"data":[0,0,0,0,0,0,0,0,0,0,0,0,0,0,0,0,0,0,0,0,0,0,0,0,0,0,0,0,0,0,0,0,0,0,0,0,0,0,0,0,0,0,0,0,0,0,0,0,0,0,0,0,0,0,0,0,0,0,-0.5512,-0.5512,0,-0.5461,-0.5461,-0.546,-0.5422,-0.5422,-0.5421,-0.5421,-0.5367,-0.5366,-0.5365,0,0,0,0,0,0,0,0,0,0,0,0,0,-0.5577,-0.5576,-0.5512,-0.5512,-0.5511,-0.5461,-0.546,-0.546,-0.5422,-0.5422,-0.5421,-0.5421,-0.5368,-0.5366,-0.5365,0,0,0,0,0,0,0,0,0,0,0,0,0,-0.554,-0.5576,-0.5513,-0.5486,-0.5483,-0.5461,-0.546,-0.546,-0.5422,-0.5422,-0.5421,-0.5421,-0.5368,-0.5367,-0.5365,-0.5364,0,0,-0.536,-0.5359,0,0,0,0,0,0,0,0,-0.5542,-0.5537,-0.5491,-0.5488,-0.5485,-0.5447,-0.5464,-0.5428,-0.5422,-0.5445,-0.5421,-0.542,-0.5394,-0.539,-0.5382,-0.5362,-0.536,-0.536,-0.5359,-0.5358,-0.5357,0,0,0,0,0,0,0,-0.5545,-0.5539,-0.5492,-0.549,-0.5487,-0.5477,-0.5471,-0.5457,-0.5423,-0.5443,-0.544,-0.5435,-0.5393,-0.5384,-0.538,-0.5359,-0.536,-0.5358,-0.5357,-0.5356,-0.5336,-0.5337,0,0,0,0,0,0,-0.5551,-0.5542,-0.5494,-0.5491,-0.5513,-0.5476,-0.547,-0.546,-0.5423,-0.5417,-0.5435,-0.5433,-0.5387,-0.5382,-0.5378,-0.5376,-0.5358,-0.5356,-0.5355,-0.5336,-0.5337,-0.5337,0,0,0,0,0,0,-0.5553,-0.5547,-0.5496,-0.5515,-0.5508,-0.5476,-0.5465,-0.5459,-0.545,-0.5417,-0.5411,-0.5432,-0.5386,-0.5381,-0.5368,-0.5374,-0.5356,-0.5354,-0.5335,-0.5336,-0.5337,-0.5371,0,0,0,0,0,0,-0.5555,-0.5548,-0.5548,-0.5516,-0.5507,-0.5487,-0.5465,-0.5459,-0.5448,-0.5444,-0.5413,-0.5407,-0.5385,-0.5371,-0.5367,-0.5371,-0.5353,-0.5335,-0.5336,-0.5337,-0.5369,-0.5373,-0.5376,0,0,0,0,0,-0.5557,-0.5559,-0.5548,-0.5542,-0.5506,-0.5487,-0.5482,-0.5458,-0.5448,-0.5447,-0.5426,-0.5408,-0.5374,-0.537,-0.5365,-0.5369,-0.5334,-0.5335,-0.5336,-0.5368,-0.5372,-0.5376,0,0,0,0,0,0,-0.5592,-0.5554,-0.5542,-0.5533,-0.5514,-0.5481,-0.5479,-0.5463,-0.5446,-0.5443,-0.5413,-0.5406,-0.5397,-0.5381,-0.5378,-0.5367,-0.5352,-0.5352,-0.5377,-0.5381,-0.5384,-0.5388,-0.5351,0,0,0,0,0,-0.5599,-0.5587,-0.5555,-0.555,-0.5541,-0.5512,-0.5503,-0.5486,-0.5464,-0.5456,-0.5434,-0.5414,-0.5398,-0.5389,-0.5372,-0.5367,-0.5359,-0.5367,-0.537,-0.5373,-0.5373,-0.537,-0.5372,-0.5341,-0.5341,-0.5341,0,0,-0.5613,-0.5591,-0.5585,-0.5557,-0.554,-0.5528,-0.5506,-0.5494,-0.5485,-0.5454,-0.5441,-0.5425,-0.54,-0.5391,-0.5386,-0.5378,-0.538,-0.5374,-0.5377,-0.5375,-0.5371,-0.5374,-0.5377,-0.5341,-0.5341,-0.5341,0,0,-0.5632,-0.5614,-0.5609,-0.5592,-0.5567,-0.5548,-0.5547,-0.5516,-0.5504,-0.5491,-0.5468,-0.5456,-0.543,-0.5414,-0.5402,-0.5416,-0.5399,-0.5411,-0.5429,-0.5425,-0.5428,-0.543,-0.5435,-0.5438,-0.5412,-0.5412,-0.5412,0,-0.5652,-0.5634,-0.5608,-0.5598,-0.5587,-0.5558,-0.5553,-0.5538,-0.5509,-0.5501,-0.5492,-0.546,-0.5441,-0.5428,-0.5432,-0.5423,-0.5421,-0.5415,-0.543,-0.5432,-0.5433,-0.5438,-0.544,-0.5414,-0.5414,-0.5413,-0.5413,0,-0.5661,-0.5649,-0.5647,-0.5621,-0.5609,-0.5601,-0.5574,-0.5565,-0.5548,-0.553,-0.5517,-0.5494,-0.5473,-0.5468,-0.5452,-0.5453,-0.5449,-0.5435,-0.542,-0.5438,-0.5442,-0.5444,-0.5416,-0.5416,-0.5415,-0.5415,0,0,-0.5701,-0.566,-0.566,-0.5648,-0.5618,-0.5608,-0.5599,-0.5579,-0.5572,-0.5553,-0.5545,-0.5524,-0.5511,-0.5498,-0.5479,-0.5476,-0.549,-0.5463,-0.5462,-0.5469,-0.549,-0.5501,-0.5504,-0.5478,-0.5478,-0.5478,-0.5493,0,-0.5716,-0.5699,-0.5675,-0.5666,-0.5655,-0.5628,-0.562,-0.5601,-0.5584,-0.5572,-0.5552,-0.5538,-0.5522,-0.5514,-0.551,-0.5489,-0.5494,-0.5487,-0.547,-0.547,-0.5478,-0.5506,-0.5517,-0.5532,-0.5494,-0.5494,-0.5494,0,-0.5732,-0.5715,-0.5705,-0.5676,-0.5671,-0.5664,-0.5644,-0.5633,-0.5611,-0.5598,-0.5584,-0.5564,-0.5553,-0.5539,-0.5524,-0.5521,-0.5512,-0.5501,-0.5501,-0.5499,-0.5484,-0.5505,-0.5536,-0.5539,-0.5497,-0.5496,-0.5496,0,-0.5763,-0.5737,-0.5728,-0.5718,-0.5685,-0.5681,-0.5667,-0.5644,-0.5634,-0.5616,-0.5609,-0.559,-0.558,-0.5566,-0.5542,-0.5534,-0.553,-0.5513,-0.5519,-0.552,-0.552,-0.552,-0.5551,-0.5514,-0.5514,-0.5513,-0.5513,0,-0.5783,-0.5778,-0.5742,-0.5736,-0.573,-0.5703,-0.5697,-0.568,-0.5661,-0.5651,-0.5626,-0.5618,-0.5586,-0.5574,-0.5555,-0.5546,-0.5541,-0.5531,-0.5526,-0.5534,-0.5535,-0.5528,-0.5527,-0.5514,-0.5514,-0.5514,-0.5514,0,-0.5817,-0.5792,-0.5781,-0.575,-0.5742,-0.5739,-0.5713,-0.5707,-0.5688,-0.5676,-0.5672,-0.5643,-0.5627,-0.5602,-0.5578,-0.5566,-0.556,-0.5551,-0.5568,-0.5565,-0.5573,-0.5573,-0.56,-0.5602,-0.5564,-0.5564,-0.5564,0,-0.5832,-0.5827,-0.5796,-0.5789,-0.5776,-0.5763,-0.5753,-0.5725,-0.5715,-0.569,-0.5687,-0.567,-0.5655,-0.5631,-0.5608,-0.559,-0.5581,-0.5592,-0.5578,-0.5586,-0.5582,-0.5583,-0.5582,-0.5595,-0.5596,-0.5596,-0.5597,0,-0.586,-0.5849,-0.5835,-0.5817,-0.5805,-0.5789,-0.5772,-0.5767,-0.5736,-0.5726,-0.5711,-0.5699,-0.5676,-0.5659,-0.5638,-0.5623,-0.5605,-0.5601,-0.5602,-0.561,-0.562,-0.5615,-0.5577,-0.5601,-0.56,-0.56,-0.56,-0.56,-0.5886,-0.5881,-0.5859,-0.5844,-0.5828,-0.5813,-0.5806,-0.5787,-0.5773,-0.5752,-0.5737,-0.5723,-0.5701,-0.5671,-0.5657,-0.5645,-0.5637,-0.5637,-0.5638,-0.5638,-0.5642,-0.5621,-0.5641,-0.5641,-0.5641,-0.5641,-0.564,0,-0.5914,-0.5898,-0.5885,-0.5862,-0.5851,-0.5835,-0.5815,-0.5807,-0.5795,-0.5776,-0.5762,-0.5744,-0.5728,-0.5703,-0.5685,-0.568,-0.5671,-0.5676,-0.5677,-0.5674,-0.565,-0.5651,-0.5684,-0.5684,-0.5684,-0.5684,-0.5684,-0.5684,-0.5927,-0.5919,-0.5904,-0.5888,-0.5872,-0.5858,-0.5848,-0.5834,-0.5819,-0.5801,-0.5787,-0.5771,-0.575,-0.573,-0.5715,-0.5708,-0.5703,-0.571,-0.5701,-0.5679,-0.5675,-0.5671,-0.5673,-0.5709,-0.5709,-0.5726,-0.5726,-0.5726]},{"header":{"parameterUnit":"m.s-1","parameterCategory":1,"la1":30.2991,"la2":30.254,"lo1":-89.0895,"lo2":-89.0444,"dy":0.0017,"dx":0.0017,"nx":28,"ny":28,"refTime":"2025-09-12T09:00:00:Z","depth":0,"parameterNumber":3,"parameterNumberName":"V-component_of_WINDS"},"data":[0,0,0,0,0,0,0,0,0,0,0,0,0,0,0,0,0,0,0,0,0,0,0,0,0,0,0,0,0,0,0,0,0,0,0,0,0,0,0,0,0,0,0,0,0,0,0,0,0,0,0,0,0,0,0,0,0,0,2.124,2.1239,0,2.1157,2.1156,2.1155,2.1092,2.1092,2.1091,2.1091,2.1001,2.1,2.0998,0,0,0,0,0,0,0,0,0,0,0,0,0,2.1339,2.1338,2.124,2.1239,2.1238,2.1157,2.1156,2.1155,2.1093,2.1092,2.1091,2.1091,2.1002,2.1,2.0998,0,0,0,0,0,0,0,0,0,0,0,0,0,2.128,2.1337,2.124,2.1197,2.1192,2.1158,2.1156,2.1155,2.1093,2.1092,2.1091,2.109,2.1003,2.1,2.0997,2.0997,0,0,2.0989,2.0988,0,0,0,0,0,0,0,0,2.1284,2.1277,2.1204,2.12,2.1195,2.1134,2.1158,2.1102,2.1093,2.113,2.1091,2.109,2.1046,2.104,2.1026,2.0993,2.0989,2.0988,2.0987,2.0986,2.0985,0,0,0,0,0,0,0,2.1288,2.128,2.1207,2.1204,2.1198,2.118,2.1171,2.1147,2.1094,2.1127,2.1122,2.1114,2.1043,2.1029,2.1023,2.0988,2.0989,2.0986,2.0984,2.0983,2.0949,2.095,0,0,0,0,0,0,2.1299,2.1284,2.121,2.1205,2.1238,2.1179,2.1169,2.1155,2.1094,2.1084,2.1114,2.1111,2.1034,2.1027,2.102,2.1014,2.0986,2.0983,2.0981,2.0948,2.0949,2.095,0,0,0,0,0,0,2.1302,2.1293,2.1213,2.1243,2.1231,2.1179,2.1163,2.1153,2.1139,2.1084,2.1074,2.111,2.1033,2.1024,2.1003,2.101,2.0982,2.0979,2.0947,2.0948,2.0949,2.1004,0,0,0,0,0,0,2.1305,2.1295,2.1295,2.1243,2.123,2.1199,2.1163,2.1152,2.1135,2.1129,2.1077,2.1068,2.1031,2.1008,2.1,2.1006,2.0977,2.0946,2.0948,2.0949,2.1002,2.1007,2.1012,0,0,0,0,0,2.1309,2.1313,2.1295,2.1287,2.123,2.12,2.1192,2.1152,2.1136,2.1135,2.11,2.1069,2.1011,2.1006,2.0997,2.1002,2.0946,2.0947,2.0949,2.0999,2.1006,2.1012,0,0,0,0,0,0,2.1365,2.1305,2.1285,2.1273,2.1243,2.119,2.1187,2.116,2.1132,2.1128,2.1077,2.1066,2.1051,2.1024,2.102,2.0998,2.0974,2.0975,2.1016,2.1022,2.1027,2.1033,2.0975,0,0,0,0,0,2.1377,2.1359,2.1307,2.1302,2.1287,2.124,2.1226,2.1197,2.1163,2.1149,2.1112,2.1078,2.1052,2.1036,2.1009,2.0998,2.0985,2.0997,2.1002,2.1007,2.1007,2.0998,2.1002,2.0955,2.0955,2.0955,0,0,2.1399,2.1365,2.1356,2.1312,2.1285,2.1266,2.123,2.1211,2.1196,2.1145,2.1124,2.1096,2.1054,2.1039,2.103,2.1016,2.1017,2.1009,2.1013,2.101,2.1,2.1005,2.1009,2.0957,2.0956,2.0956,0,0,2.1431,2.1404,2.1396,2.1369,2.1329,2.1298,2.1296,2.1247,2.1227,2.1205,2.1166,2.1147,2.1104,2.1075,2.1055,2.1077,2.1047,2.1069,2.1096,2.1088,2.1091,2.1094,2.11,2.1103,2.107,2.107,2.107,0,2.1464,2.1435,2.1395,2.1379,2.136,2.1315,2.1305,2.1281,2.1233,2.122,2.1207,2.1151,2.112,2.1096,2.1102,2.1088,2.1082,2.1074,2.1094,2.1097,2.1099,2.1104,2.1107,2.1073,2.1073,2.1072,2.1072,0,2.1477,2.1458,2.1456,2.1413,2.1394,2.1381,2.1337,2.1322,2.1296,2.1265,2.1243,2.1204,2.1168,2.1161,2.1134,2.1133,2.1126,2.1104,2.1079,2.1107,2.1111,2.1113,2.1077,2.1076,2.1075,2.1074,0,0,2.154,2.1476,2.1475,2.1455,2.1407,2.139,2.1375,2.1342,2.1329,2.1298,2.1283,2.1248,2.1227,2.1204,2.1174,2.1167,2.1185,2.1146,2.1144,2.1153,2.1179,2.1195,2.1198,2.1166,2.1166,2.1166,2.1182,0,2.1563,2.1535,2.1498,2.1481,2.1462,2.1419,2.1406,2.1374,2.1346,2.1324,2.1292,2.1267,2.1243,2.1229,2.122,2.1185,2.1189,2.1183,2.1149,2.1148,2.1159,2.12,2.1217,2.1233,2.1184,2.1184,2.1184,0,2.1586,2.1558,2.154,2.1494,2.1484,2.1473,2.1439,2.1419,2.1382,2.1362,2.1337,2.1305,2.1285,2.1264,2.1235,2.1232,2.1216,2.1196,2.1196,2.1189,2.1167,2.1193,2.1238,2.124,2.1186,2.1186,2.1186,0,2.1632,2.159,2.1574,2.1557,2.1503,2.1496,2.1473,2.1435,2.1417,2.1387,2.1374,2.1342,2.1324,2.1299,2.1258,2.1247,2.1233,2.1208,2.1213,2.1214,2.121,2.1211,2.1252,2.1204,2.1203,2.1203,2.1203,0,2.166,2.165,2.1593,2.1583,2.1571,2.1528,2.1516,2.1488,2.1455,2.1438,2.1399,2.1383,2.1331,2.1309,2.1277,2.1256,2.1249,2.123,2.1221,2.1233,2.1235,2.122,2.1217,2.1204,2.1204,2.1204,2.1204,0,2.1708,2.167,2.1649,2.16,2.1588,2.158,2.1537,2.1525,2.1495,2.1473,2.1465,2.1417,2.1389,2.1346,2.1305,2.1283,2.1267,2.1254,2.128,2.1274,2.1281,2.128,2.1312,2.1313,2.1267,2.1267,2.1268,0,2.1728,2.1719,2.167,2.1656,2.1635,2.1613,2.1595,2.1552,2.1534,2.1492,2.1484,2.1453,2.1425,2.1381,2.1341,2.1309,2.1294,2.1307,2.1288,2.13,2.1292,2.1292,2.129,2.1311,2.1312,2.1312,2.1313,0,2.1766,2.1748,2.1724,2.1693,2.1673,2.1646,2.1618,2.1608,2.1559,2.1541,2.1512,2.1491,2.1449,2.1418,2.138,2.1354,2.1325,2.132,2.1318,2.1329,2.1344,2.1334,2.129,2.1318,2.1318,2.1317,2.1317,2.1317,2.1799,2.1789,2.1753,2.1727,2.1702,2.1676,2.1662,2.163,2.1606,2.157,2.1546,2.1518,2.148,2.1427,2.1402,2.1379,2.1366,2.1365,2.1365,2.1365,2.1368,2.1349,2.1372,2.1372,2.1371,2.1371,2.1371,0,2.1833,2.1808,2.1786,2.1747,2.1727,2.1703,2.167,2.1654,2.1631,2.1599,2.1573,2.154,2.1509,2.1468,2.1434,2.1423,2.1408,2.1415,2.1415,2.1409,2.1382,2.1385,2.1428,2.1428,2.1427,2.1427,2.1427,2.1427,2.1849,2.1831,2.1809,2.1777,2.1751,2.1725,2.1708,2.1683,2.1658,2.1622,2.1598,2.1572,2.1535,2.1498,2.1469,2.1457,2.1446,2.1457,2.1441,2.1416,2.1411,2.1406,2.1409,2.1455,2.1455,2.1469,2.1469,2.1469]}]]